[[{"header":{"parameterUnit":"m.s-1","parameterCategory":1,"la1":30.2991,"la2":30.254,"lo1":-89.0895,"lo2":-89.0444,"dy":0.0017,"dx":0.0017,"nx":28,"ny":28,"refTime":"2026-02-02T09:00:00:Z","depth":0,"parameterNumber":2,"parameterNumberName":"U-component_of_WINDS"},"data":[0,0,0,0,0,0,0,0,0,0,0,0,0,0,0,0,0,0,0,0,0,0,0,0,0,0,0,0,0,0,0,0,0,0,0,0,0,0,0,0,0,0,0,0,0,0,0,0,0,0,0,0,0,0,0,0,0,0,2.871,2.8713,0,2.8949,2.8952,2.8954,2.9015,2.9014,2.9012,2.9011,2.9262,2.927,2.9278,0,0,0,0,0,0,0,0,0,0,0,0,0,2.8313,2.832,2.871,2.8713,2.8716,2.8949,2.8952,2.8955,2.9016,2.9014,2.9012,2.901,2.9259,2.9269,2.9279,0,0,0,0,0,0,0,0,0,0,0,0,0,2.8512,2.8323,2.8709,2.8774,2.8782,2.8948,2.8952,2.8956,2.9016,2.9014,2.9011,2.9009,2.9256,2.9268,2.928,2.9401,0,0,2.9317,2.9322,0,0,0,0,0,0,0,0,2.8501,2.8527,2.8761,2.877,2.8779,2.895,2.8904,2.9105,2.9017,2.8927,2.9011,2.9008,2.916,2.918,2.923,2.9412,2.9423,2.9318,2.9326,2.9331,2.9334,0,0,0,0,0,0,0,2.8487,2.8517,2.8805,2.8765,2.8776,2.8793,2.8819,2.8943,2.9054,2.8935,2.894,2.8967,2.9165,2.9218,2.9237,2.9427,2.9318,2.9329,2.9336,2.9341,2.9723,2.9725,0,0,0,0,0,0,2.8461,2.8505,2.8797,2.8812,2.8631,2.8802,2.8831,2.8898,2.9053,2.9074,2.8969,2.8969,2.9199,2.9222,2.9246,2.9399,2.9331,2.9342,2.9349,2.972,2.9723,2.9726,0,0,0,0,0,0,2.8452,2.8487,2.8788,2.866,2.87,2.8812,2.8886,2.8903,2.8957,2.9078,2.9099,2.9002,2.9198,2.9229,2.9362,2.9408,2.9348,2.9359,2.9717,2.9721,2.9725,2.9704,0,0,0,0,0,0,2.8441,2.8483,2.8528,2.866,2.8706,2.8897,2.8888,2.891,2.8977,2.898,2.9115,2.9136,2.9199,2.9343,2.9374,2.9424,2.9368,2.9713,2.9718,2.9723,2.9701,2.9707,2.9712,0,0,0,0,0,2.8426,2.8514,2.853,2.8565,2.8764,2.89,2.8926,2.8994,2.898,2.9028,2.9106,2.9132,2.9398,2.9356,2.9391,2.9446,2.971,2.9717,2.9723,2.9699,2.9706,2.9712,0,0,0,0,0,0,2.8386,2.8532,2.8552,2.8684,2.8779,2.8909,2.8971,2.9,2.9102,2.91,2.9183,2.9213,2.9341,2.9407,2.9358,2.9572,2.9555,2.9568,2.9524,2.9532,2.9537,2.9519,2.9378,0,0,0,0,0,2.8392,2.8487,2.8611,2.8716,2.8762,2.8858,2.892,2.8965,2.9067,2.9108,2.9196,2.9296,2.9402,2.9471,2.9575,2.9711,2.9743,2.9766,2.9771,2.9775,2.9786,2.9865,2.9877,2.9747,2.9747,2.9747,0,0,2.8407,2.8498,2.8554,2.871,2.8789,2.8888,2.8892,2.8996,2.9072,2.9124,2.9255,2.9323,2.9441,2.9576,2.964,2.9634,2.9829,2.9783,2.9786,2.9795,2.9873,2.9885,2.9896,2.9752,2.9751,2.975,0,0,2.8483,2.8561,2.8658,2.8736,2.8855,2.8918,2.8941,2.9069,2.9115,2.9247,2.9289,2.9381,2.9563,2.9645,2.9711,2.982,2.9848,2.9852,2.9881,2.9957,2.9967,2.9976,3.0017,3.003,2.9863,2.9863,2.9863,0,2.8487,2.8635,2.8705,2.8807,2.8876,2.8927,2.9027,2.91,2.9247,2.9295,2.9286,2.9516,2.9598,2.9754,2.9781,2.9832,2.9863,2.9837,2.9959,2.997,2.998,3.0019,3.0034,2.9862,2.9862,2.9862,2.9862,0,2.8635,2.8737,2.8802,2.894,2.9017,2.9117,2.9204,2.9274,2.9312,2.9377,2.9513,2.9614,2.974,2.9781,2.982,2.9943,2.9936,2.9942,2.9927,2.9991,3.0029,3.0045,2.9862,2.9862,2.9862,2.9862,0,0,2.8692,2.8868,2.8891,2.8955,2.909,2.9172,2.9276,2.9398,2.9457,2.9557,2.9648,2.9801,2.9808,2.9882,2.9932,2.9998,3.008,2.9997,3.0001,3.001,3.0224,3.0218,3.0235,3.0099,3.0102,3.0105,3.0214,0,2.8786,2.8971,2.9038,2.9192,2.9289,2.9339,2.9431,2.9524,2.9589,2.9683,2.9755,2.9862,2.9862,2.9908,2.9976,3.0055,3.0124,3.0048,3.0187,3.0191,3.0156,3.0255,3.0249,3.0348,3.023,3.0232,3.0234,0,2.892,2.9021,2.9183,2.9307,2.9351,2.9431,2.9549,2.9637,2.9746,2.9789,2.9872,2.9917,3.0031,3.0008,3.0167,3.0114,3.0175,3.0223,3.0229,3.0245,3.0216,3.0274,3.0381,3.0395,3.0259,3.0257,3.0255,0,2.8947,2.9123,2.9243,2.9297,2.9444,2.95,2.9565,2.9671,2.974,2.9845,2.9891,3.0008,3.0072,3.0162,3.0239,3.0214,3.0392,3.0375,3.0432,3.043,3.0467,3.0464,3.0585,3.0505,3.0505,3.0505,3.0504,0,2.9045,2.9143,2.9257,2.9331,2.9444,2.952,2.963,2.9698,2.9793,2.9883,2.9935,3.0019,3.0114,3.0211,3.0272,3.0396,3.0424,3.0463,3.0478,3.0459,3.0454,3.05,3.0496,3.0509,3.0508,3.0507,3.0506,0,2.9093,2.9174,2.9309,2.9437,2.9472,2.9549,2.966,2.9736,2.9802,2.9916,2.9948,3.0053,3.0171,3.0255,3.0408,3.0449,3.0582,3.0596,3.0544,3.0552,3.0604,3.0598,3.076,3.0786,3.0687,3.0688,3.0689,0,2.9151,2.9227,2.9364,2.9427,2.949,2.9592,2.9663,2.9742,2.9815,2.9945,3.0005,3.0126,3.0226,3.0412,3.0504,3.0621,3.064,3.0689,3.0658,3.0636,3.0642,3.0636,3.0645,3.0693,3.0694,3.0694,3.0695,0,2.9245,2.9281,2.938,2.9494,2.9577,2.9671,2.9766,2.9815,2.9912,2.9991,3.0111,3.0188,3.0343,3.0463,3.059,3.0659,3.0694,3.0704,3.0723,3.0704,3.0671,3.0691,3.0557,3.07,3.0699,3.0699,3.0698,3.0698,2.93,2.9371,2.9478,2.9588,2.9667,2.9755,2.9832,2.9908,3.0009,3.0139,3.0181,3.0306,3.0415,3.0588,3.0659,3.076,3.0758,3.0786,3.0793,3.0799,3.0799,3.0655,3.0783,3.0783,3.0783,3.0783,3.0783,0,2.9397,2.9469,2.9569,2.9699,2.9786,2.9809,2.9916,2.9988,3.0096,3.0194,3.0292,3.0431,3.0548,3.0649,3.0771,3.0832,3.0851,3.0861,3.0858,3.0874,3.0793,3.0764,3.0844,3.0844,3.0844,3.0843,3.0843,3.0843,2.9458,2.9579,2.9628,2.9791,2.9863,2.9983,3.0042,3.0125,3.0203,3.0355,3.0452,3.0516,3.0617,3.0747,3.0856,3.0883,3.0926,3.0933,3.0964,3.0886,3.0879,3.0872,3.0846,3.0941,3.0941,3.1037,3.1038,3.1038]},{"header":{"parameterUnit":"m.s-1","parameterCategory":1,"la1":30.2991,"la2":30.254,"lo1":-89.0895,"lo2":-89.0444,"dy":0.0017,"dx":0.0017,"nx":28,"ny":28,"refTime":"2026-02-02T09:00:00:Z","depth":0,"parameterNumber":3,"parameterNumberName":"V-component_of_WINDS"},"data":[0,0,0,0,0,0,0,0,0,0,0,0,0,0,0,0,0,0,0,0,0,0,0,0,0,0,0,0,0,0,0,0,0,0,0,0,0,0,0,0,0,0,0,0,0,0,0,0,0,0,0,0,0,0,0,0,0,0,2.0703,2.0704,0,2.0837,2.0839,2.084,2.09,2.0899,2.0899,2.0899,2.1043,2.1046,2.105,0,0,0,0,0,0,0,0,0,0,0,0,0,2.0504,2.0508,2.0703,2.0704,2.0706,2.0837,2.0839,2.0841,2.09,2.0899,2.0899,2.0899,2.1041,2.1046,2.1051,0,0,0,0,0,0,0,0,0,0,0,0,0,2.061,2.0509,2.0703,2.0751,2.0757,2.0836,2.0839,2.0841,2.09,2.0899,2.0899,2.0899,2.104,2.1045,2.1051,2.1094,0,0,2.107,2.1072,0,0,0,0,0,0,0,0,2.0604,2.0617,2.0742,2.0748,2.0755,2.0851,2.0821,2.0926,2.09,2.0846,2.0899,2.0899,2.098,2.099,2.1016,2.1101,2.1107,2.107,2.1074,2.1077,2.1078,0,0,0,0,0,0,0,2.0596,2.0612,2.0756,2.0744,2.0752,2.0769,2.0783,2.0842,2.0913,2.085,2.0855,2.087,2.0983,2.1011,2.102,2.1109,2.107,2.1075,2.1079,2.1082,2.1239,2.1239,0,0,0,0,0,0,2.058,2.0605,2.0752,2.076,2.0677,2.0772,2.0789,2.0821,2.0912,2.0926,2.087,2.0872,2.1,2.1013,2.1026,2.1084,2.1076,2.1082,2.1086,2.1238,2.1239,2.1239,0,0,0,0,0,0,2.0576,2.0593,2.0747,2.0684,2.0705,2.0776,2.0811,2.0823,2.0851,2.0927,2.0941,2.0885,2.1001,2.1017,2.1077,2.1089,2.1085,2.109,2.1237,2.1238,2.1239,2.1198,0,0,0,0,0,0,2.057,2.0591,2.0606,2.0684,2.0708,2.0793,2.0812,2.0826,2.0861,2.0865,2.0944,2.0957,2.1002,2.1068,2.1083,2.1097,2.1095,2.1237,2.1238,2.1239,2.1199,2.1198,2.1197,0,0,0,0,0,2.0562,2.059,2.0607,2.0624,2.0728,2.0794,2.0808,2.0857,2.0861,2.0879,2.0928,2.0955,2.1085,2.1073,2.1091,2.1107,2.1236,2.1238,2.1239,2.12,2.1198,2.1197,0,0,0,0,0,0,2.0514,2.0601,2.062,2.0674,2.0726,2.0804,2.0827,2.0853,2.0907,2.0908,2.0968,2.0986,2.1041,2.108,2.1066,2.1155,2.1163,2.1168,2.1127,2.1127,2.1125,2.1115,2.11,0,0,0,0,0,2.0509,2.0553,2.0628,2.0668,2.0693,2.0755,2.0785,2.0818,2.0876,2.0898,2.0952,2.1008,2.1062,2.1096,2.115,2.1205,2.1225,2.1225,2.1224,2.1223,2.1227,2.1261,2.1263,2.1244,2.1244,2.1244,0,0,2.05,2.0553,2.0578,2.0659,2.0703,2.075,2.0773,2.0821,2.0857,2.0907,2.0966,2.1007,2.1074,2.1132,2.116,2.1167,2.1236,2.1224,2.1222,2.1228,2.1262,2.1264,2.1266,2.1245,2.1244,2.1244,0,0,2.0508,2.0551,2.059,2.0634,2.07,2.0741,2.075,2.0825,2.0854,2.0914,2.0953,2.0997,2.1088,2.1135,2.117,2.1197,2.1225,2.1213,2.1207,2.124,2.1241,2.1243,2.1254,2.1257,2.1216,2.1216,2.1216,0,2.0489,2.0558,2.0607,2.0653,2.0689,2.0734,2.0775,2.0816,2.0897,2.0921,2.0927,2.1043,2.1091,2.1161,2.1168,2.1194,2.1209,2.1204,2.1237,2.1239,2.1241,2.1253,2.1257,2.1214,2.1214,2.1215,2.1215,0,2.0533,2.058,2.0604,2.0679,2.0718,2.0761,2.0819,2.0852,2.0882,2.0923,2.0986,2.1045,2.1112,2.1132,2.1162,2.1207,2.1209,2.1224,2.1234,2.124,2.1252,2.1257,2.1212,2.1212,2.1213,2.1213,0,0,2.0513,2.0615,2.0623,2.0658,2.0735,2.0774,2.0821,2.0884,2.0913,2.0968,2.101,2.1086,2.1101,2.1142,2.1178,2.1206,2.1226,2.1219,2.1222,2.122,2.1282,2.1271,2.1275,2.1244,2.1245,2.1246,2.1277,0,2.0532,2.0615,2.0661,2.0725,2.0771,2.0816,2.0857,2.0909,2.095,2.0997,2.1043,2.1096,2.1111,2.1136,2.1166,2.1217,2.1239,2.1215,2.1287,2.1289,2.127,2.1281,2.1269,2.1295,2.1282,2.1283,2.1283,0,2.0565,2.0618,2.0686,2.0759,2.078,2.0815,2.0879,2.0922,2.0984,2.1012,2.1057,2.1093,2.1146,2.1151,2.1227,2.1209,2.1242,2.1271,2.1274,2.1284,2.1287,2.1293,2.1304,2.1309,2.1291,2.129,2.129,0,2.0546,2.0634,2.0687,2.0715,2.0801,2.0825,2.0863,2.0924,2.096,2.1016,2.1041,2.1103,2.1138,2.1186,2.1239,2.1237,2.1311,2.1319,2.1338,2.1337,2.1352,2.1351,2.1371,2.137,2.137,2.137,2.137,0,2.0563,2.0604,2.0679,2.0712,2.0759,2.0813,2.086,2.0901,2.0955,2.0999,2.1042,2.1082,2.1149,2.1198,2.124,2.1298,2.1313,2.1339,2.135,2.1336,2.1333,2.1359,2.1359,2.1371,2.1371,2.1371,2.1371,0,2.055,2.0602,2.0662,2.0738,2.0759,2.0791,2.0857,2.0892,2.0935,2.0989,2.1005,2.1074,2.1134,2.1191,2.1273,2.1301,2.136,2.1374,2.1339,2.1345,2.1361,2.1359,2.14,2.1409,2.14,2.14,2.14,0,2.0558,2.059,2.0669,2.07,2.0736,2.0786,2.0823,2.0878,2.0915,2.0988,2.1015,2.1078,2.1132,2.1227,2.1286,2.1349,2.1366,2.1376,2.1376,2.1361,2.1368,2.1366,2.1371,2.1375,2.1375,2.1374,2.1374,0,2.0567,2.0591,2.0641,2.0701,2.0743,2.0793,2.0845,2.0869,2.0934,2.0974,2.1036,2.1077,2.116,2.1224,2.1294,2.1336,2.1367,2.1374,2.1382,2.1369,2.1348,2.1361,2.1337,2.1373,2.1373,2.1373,2.1373,2.1373,2.0566,2.0597,2.0658,2.0713,2.0757,2.0805,2.0842,2.0889,2.094,2.1011,2.1041,2.1104,2.1168,2.1265,2.1306,2.1359,2.1366,2.1377,2.138,2.1382,2.138,2.1338,2.1371,2.1372,2.1372,2.1372,2.1372,0,2.0578,2.0619,2.0669,2.074,2.0784,2.0807,2.0867,2.0903,2.0957,2.1013,2.1064,2.1137,2.1199,2.1262,2.1329,2.1359,2.1375,2.1375,2.1374,2.1384,2.1369,2.1356,2.136,2.136,2.136,2.136,2.136,2.136,2.059,2.0644,2.0676,2.0754,2.0797,2.0857,2.0889,2.0934,2.0979,2.1057,2.1108,2.1149,2.1209,2.128,2.134,2.1357,2.1381,2.1376,2.1398,2.1384,2.1384,2.1385,2.1373,2.1381,2.1381,2.1409,2.1409,2.1409]}]]